Voltar ao catálogo

PRAETORIAN SDA_519

AtivoPO
NORAD 100077·PAYLOAD·🇺🇸 United States

Lançado Jul 16, 2026 de Vandenberg Space Force Base

Loading…

Próximas Passagens (próximas 24 horas)

TLE

AtualizadoSource: Space-Track

Época: Sep 14, 2026, 16:35 UTC

1 A0077U 26163U   26257.69118049  .00000140  00000-0  11180-3 0  9991
2 A0077  81.4807 255.2822 0014734  54.9438 305.3099 13.85570032  8294

Acompanhe PRAETORIAN SDA_519 em tempo real com AllMySat

Download on the App Store